Total_Precipitation_Accumulation
0.01 0.01 0.02 0.02 0.03 0.03 0.05 0.06 0.07 0.08 0.09 0.09 0.10 0.11 0.13 0.15 0.18 0.22 0.26 0.30 0.34 0.34 0.35 0.37 0.38 0.38 0.38 0.36 0.36 0.36 0.39 0.52 0.54 0.18 0.10 0.17 0.28 0.33 0.33 0.30 0.29 0.28 0.26
0.03 0.03 0.04 0.05 0.06 0.09 0.11 0.12 0.13 0.14 0.15 0.14 0.14 0.14 0.14 0.15 0.17 0.20 0.24 0.28 0.34 0.38 0.40 0.43 0.45 0.44 0.47 0.46 0.47 0.45 0.43 0.46 0.57 0.38 0.15 0.16 0.24 0.32 0.37 0.36 0.29 0.26 0.24
0.04 0.05 0.06 0.09 0.12 0.16 0.19 0.20 0.20 0.20 0.20 0.19 0.19 0.20 0.21 0.24 0.28 0.29 0.28 0.30 0.33 0.35 0.37 0.43 0.47 0.53 0.57 0.55 0.56 0.54 0.49 0.44 0.46 0.47 0.28 0.19 0.23 0.29 0.35 0.38 0.35 0.32 0.28
0.09 0.11 0.14 0.18 0.22 0.25 0.26 0.25 0.24 0.23 0.24 0.24 0.24 0.26 0.30 0.38 0.52 0.56 0.45 0.41 0.38 0.37 0.37 0.41 0.47 0.56 0.64 0.70 0.74 0.66 0.58 0.59 0.57 0.55 0.42 0.30 0.28 0.30 0.41 0.46 0.45 0.42 0.41
0.20 0.23 0.23 0.22 0.22 0.22 0.22 0.22 0.23 0.25 0.27 0.26 0.25 0.27 0.32 0.47 0.79 0.83 0.66 0.53 0.46 0.44 0.42 0.44 0.48 0.60 0.77 0.94 1.05 0.98 0.92 0.91 0.84 0.79 0.66 0.50 0.42 0.45 0.52 0.52 0.56 0.50 0.49
0.27 0.27 0.25 0.22 0.21 0.21 0.22 0.22 0.23 0.23 0.21 0.18 0.17 0.22 0.31 0.48 0.87 0.93 0.76 0.54 0.48 0.48 0.48 0.44 0.42 0.48 0.57 0.71 0.92 0.97 1.03 1.09 1.11 1.06 0.97 0.82 0.60 0.53 0.57 0.70 0.79 0.79 0.68
0.28 0.28 0.26 0.24 0.23 0.21 0.20 0.19 0.18 0.16 0.13 0.11 0.09 0.12 0.19 0.36 0.73 0.83 0.70 0.47 0.38 0.40 0.40 0.35 0.34 0.34 0.37 0.37 0.46 0.52 0.61 0.75 0.95 1.10 1.19 0.98 0.76 0.66 0.77 0.93 0.97 0.95 0.77
0.25 0.23 0.19 0.16 0.15 0.14 0.14 0.13 0.11 0.10 0.08 0.07 0.05 0.06 0.08 0.16 0.50 0.74 0.59 0.33 0.28 0.31 0.31 0.33 0.35 0.33 0.31 0.37 0.44 0.45 0.43 0.47 0.65 0.87 1.02 0.92 0.84 0.83 0.95 1.17 1.32 1.38 1.11
0.15 0.12 0.09 0.07 0.07 0.08 0.08 0.07 0.06 0.05 0.04 0.04 0.03 0.04 0.04 0.08 0.30 0.66 0.63 0.29 0.27 0.26 0.28 0.38 0.42 0.39 0.37 0.48 0.62 0.60 0.45 0.37 0.42 0.69 0.94 0.99 1.01 1.18 1.37 1.67 1.91 1.96 1.72
0.07 0.05 0.03 0.02 0.03 0.04 0.04 0.03 0.03 0.02 0.03 0.03 0.03 0.03 0.03 0.05 0.18 0.55 0.76 0.39 0.31 0.25 0.28 0.38 0.56 0.55 0.52 0.55 0.63 0.63 0.57 0.39 0.35 0.40 0.49 0.60 0.67 0.73 1.00 1.36 1.57 1.71 1.70
0.02 0.01 0.01 0.00 0.01 0.01 0.02 0.02 0.02 0.03 0.03 0.03 0.03 0.03 0.03 0.04 0.08 0.34 0.76 0.65 0.45 0.37 0.36 0.43 0.55 0.53 0.53 0.53 0.59 0.59 0.58 0.55 0.53 0.52 0.47 0.42 0.45 0.56 0.70 0.96 1.19 1.37 1.52
0.00 0.00 0.00 0.00 0.01 0.01 0.02 0.02 0.03 0.03 0.04 0.04 0.05 0.04 0.03 0.03 0.07 0.22 0.51 0.68 0.60 0.43 0.40 0.36 0.42 0.44 0.49 0.52 0.50 0.51 0.54 0.58 0.56 0.48 0.39 0.32 0.32 0.39 0.51 0.69 0.93 1.08 1.19
0.00 0.00 0.01 0.01 0.01 0.02 0.02 0.03 0.04 0.04 0.07 0.09 0.09 0.08 0.05 0.04 0.07 0.20 0.30 0.36 0.43 0.39 0.41 0.54 0.48 0.41 0.39 0.33 0.29 0.35 0.38 0.38 0.43 0.40 0.30 0.22 0.21 0.27 0.36 0.50 0.66 0.85 0.97
0.01 0.01 0.01 0.01 0.02 0.02 0.03 0.04 0.05 0.08 0.19 0.26 0.22 0.18 0.12 0.10 0.17 0.35 0.36 0.27 0.30 0.34 0.33 0.40 0.39 0.30 0.22 0.17 0.15 0.17 0.20 0.26 0.34 0.36 0.27 0.19 0.17 0.22 0.30 0.41 0.57 0.72 0.91
0.01 0.02 0.02 0.02 0.03 0.03 0.03 0.04 0.07 0.09 0.26 0.45 0.41 0.39 0.36 0.35 0.44 0.67 0.64 0.53 0.54 0.54 0.53 0.51 0.40 0.29 0.24 0.19 0.14 0.11 0.12 0.18 0.25 0.27 0.26 0.24 0.23 0.24 0.26 0.33 0.51 0.67 0.85
0.03 0.03 0.04 0.04 0.04 0.04 0.05 0.05 0.05 0.07 0.14 0.18 0.23 0.34 0.33 0.44 0.55 0.53 0.50 0.49 0.50 0.52 0.57 0.53 0.35 0.25 0.22 0.20 0.17 0.15 0.13 0.14 0.17 0.21 0.25 0.25 0.26 0.27 0.28 0.31 0.45 0.62 0.73
0.04 0.05 0.06 0.06 0.06 0.07 0.09 0.11 0.11 0.07 0.06 0.07 0.10 0.18 0.27 0.36 0.41 0.39 0.41 0.36 0.33 0.34 0.40 0.32 0.22 0.19 0.18 0.17 0.16 0.17 0.14 0.11 0.14 0.21 0.24 0.25 0.28 0.32 0.34 0.36 0.42 0.55 0.64
0.04 0.06 0.08 0.08 0.09 0.11 0.13 0.14 0.16 0.16 0.11 0.06 0.04 0.08 0.16 0.23 0.28 0.30 0.32 0.30 0.23 0.18 0.20 0.21 0.18 0.16 0.16 0.17 0.16 0.16 0.15 0.14 0.17 0.21 0.23 0.24 0.29 0.37 0.40 0.38 0.41 0.54 0.64
0.04 0.06 0.09 0.10 0.11 0.12 0.13 0.14 0.14 0.14 0.14 0.10 0.07 0.07 0.10 0.14 0.15 0.16 0.18 0.23 0.21 0.17 0.15 0.15 0.16 0.18 0.19 0.19 0.17 0.17 0.18 0.18 0.17 0.20 0.21 0.22 0.26 0.37 0.40 0.35 0.39 0.50 0.70
0.05 0.08 0.12 0.12 0.13 0.13 0.13 0.15 0.17 0.18 0.17 0.15 0.14 0.14 0.19 0.24 0.22 0.16 0.15 0.18 0.20 0.19 0.18 0.19 0.17 0.18 0.20 0.21 0.21 0.20 0.20 0.18 0.17 0.19 0.21 0.22 0.26 0.35 0.39 0.37 0.43 0.53 0.63
0.07 0.08 0.11 0.13 0.13 0.14 0.17 0.20 0.22 0.24 0.24 0.21 0.15 0.15 0.37 0.48 0.34 0.21 0.18 0.19 0.23 0.25 0.24 0.23 0.20 0.19 0.20 0.22 0.24 0.22 0.21 0.18 0.17 0.20 0.22 0.24 0.28 0.35 0.36 0.40 0.45 0.52 0.61
0.11 0.13 0.14 0.15 0.16 0.17 0.21 0.23 0.25 0.26 0.25 0.22 0.16 0.13 0.20 0.23 0.20 0.19 0.18 0.18 0.20 0.24 0.27 0.31 0.28 0.22 0.23 0.28 0.29 0.29 0.25 0.20 0.17 0.21 0.26 0.26 0.30 0.34 0.38 0.43 0.48 0.54 0.62
0.16 0.18 0.17 0.15 0.16 0.19 0.20 0.19 0.21 0.24 0.24 0.22 0.20 0.18 0.17 0.18 0.19 0.20 0.21 0.20 0.22 0.25 0.26 0.31 0.32 0.25 0.21 0.25 0.29 0.34 0.36 0.28 0.24 0.30 0.39 0.38 0.36 0.38 0.42 0.47 0.50 0.56 0.62
0.20 0.21 0.21 0.19 0.18 0.19 0.21 0.22 0.22 0.22 0.24 0.24 0.23 0.21 0.19 0.19 0.19 0.18 0.19 0.20 0.24 0.25 0.27 0.32 0.33 0.29 0.25 0.27 0.29 0.30 0.33 0.37 0.48 0.55 0.53 0.55 0.50 0.43 0.46 0.51 0.51 0.54 0.60
0.20 0.21 0.22 0.23 0.23 0.24 0.25 0.24 0.22 0.23 0.25 0.26 0.25 0.22 0.20 0.19 0.19 0.18 0.18 0.21 0.25 0.26 0.24 0.27 0.30 0.30 0.27 0.25 0.26 0.27 0.30 0.43 0.60 0.82 0.96 0.93 0.75 0.58 0.55 0.57 0.56 0.57 0.62
0.18 0.19 0.20 0.22 0.25 0.28 0.31 0.32 0.28 0.28 0.30 0.28 0.26 0.25 0.25 0.25 0.23 0.22 0.24 0.29 0.34 0.32 0.28 0.26 0.26 0.26 0.26 0.26 0.25 0.26 0.37 0.56 0.73 0.93 1.24 1.37 1.09 0.78 0.66 0.67 0.64 0.64 0.68